Flag for Germany Weather past 2 weeks in Schleswig, Schleswig-Holstein, Germany

Now
45 °F

Passing clouds.


Feels Like: 45 °F
Forecast: 38 / 57 °F
Wind: 2 mph from North

Location: Schleswig

Current Time: Apr 18, 2015 at 9:19:42 AM

Latest Report: Apr 18, 2015 at 9:00 AM


Visibility: 25 mi

Pressure: 30.34 "Hg

Humidity: 75%

Dew point: 38 °F

Location of SchleswigLocation

Historic Weather in Schleswig — Graph

°F

Schleswig temperature yesterday

Maximum temperature yesterday: 54 °F (at 4:00 PM)
Minimum temperature yesterday: 37 °F (at 7:00 AM)
Average temperature yesterday: 45 °F

Past Weeks' High & Low Weather Summary

 TemperatureHumidityPressure
High63 °F (Apr 11, 1:00 PM)98% (Apr 7, 9:00 PM)30.56 "Hg (Apr 7, 9:00 PM)
Low31 °F (Apr 5, 7:00 AM)30% (Apr 5, 2:00 PM)29.84 "Hg (Apr 15, 4:00 PM)
Average45 °F75%30.19 "Hg
* Reported Apr 3 8:00 AM — Apr 18 8:00 AM, Schleswig, Weather by CustomWeather, © 2015

Note: Actual official high and low records may vary slightly from our data, if they occured in-between our weather recording intervals... More about our weather records

Advertising

Schleswig weather history for previous 24 hours

 ConditionsComfort  
Time TempWeatherWind HumidityBarometerVisibility
8:00 AM
Sat, Apr 18
40 °FSunny.3 mph85%30.34 "Hg22 mi
7:00 AM37 °FPassing clouds.3 mph91%30.33 "Hg16 mi
6:00 AM38 °FPassing clouds.3 mph89%30.31 "Hg19 mi
4:00 AM40 °FClear.3 mph81%30.29 "Hg19 mi
3:00 AM40 °FPassing clouds.3 mph82%30.29 "Hg19 mi
2:00 AM41 °FPassing clouds.3 mph78%30.28 "Hg19 mi
1:00 AM42 °FPassing clouds.3 mph73%30.26 "Hg19 mi
12:00 AM41 °FPassing clouds.3 mph75%30.23 "Hg19 mi
11:00 PM
Fri, Apr 17
40 °FPassing clouds.2 mph79%30.22 "Hg19 mi
10:00 PM43 °FPassing clouds.2 mph72%30.19 "Hg22 mi
9:00 PM45 °FPassing clouds.3 mph69%30.17 "Hg22 mi
8:00 PM48 °FOvercast.6 mph61%30.14 "Hg22 mi
7:00 PM51 °FPartly sunny.6 mph49%30.10 "Hg19 mi
6:00 PM51 °FOvercast.5 mph49%30.09 "Hg19 mi
4:00 PM54 °FScattered clouds.6 mph45%30.07 "Hg19 mi
3:00 PM52 °FScattered clouds.7 mph44%30.06 "Hg25 mi
2:00 PM53 °FScattered clouds.6 mph41%30.05 "Hg22 mi
1:00 PM53 °FPassing clouds.7 mph42%30.04 "Hg22 mi
12:00 PM52 °FPassing clouds.6 mph50%30.03 "Hg22 mi
11:00 AM49 °FPassing clouds.6 mph60%30.02 "Hg22 mi
10:00 AM46 °FPassing clouds.7 mph70%30.01 "Hg22 mi
9:00 AM43 °FPassing clouds.5 mph81%30.00 "Hg19 mi
Weather by CustomWeather, © 2015

See weather overviewHow to use our weather pages